Location: Choisy
(48.7685°N, 2.4187°E)
Time: 02:10:26
(UTC+00:00)

Cosmos 2228 - Pass Details

Date: 24 October 2021
Orbit: 587 x 619 km, 82.5° (Epoch: 05 December)

Event Time Altitude Azimuth Distance (km) Brightness Sun altitude
Rises 18:18:18 0° 166° (SSE) 2,876 6.3 -16.2°
Reaches altitude 10° 18:20:38 10° 157° (SSE) 1,978 5.4 -16.6°
Maximum altitude 18:24:39 36° 91° (E) 984 3.5 -17.3°
Drops below altitude 10° 18:28:41 10° 25° (NNE) 1,996 5.4 -17.9°
Sets 18:31:03 0° 17° (NNE) 2,906 6.4 -18.3°
